Regional Weather Roundup
Issued by NWS

Home | Current Version | Previous Version | Graphics & Text | Print | Product List | Glossary On
Versions: 1 2 3 4 5 6 7 8 9 10 11 12 13 14 15 16 17 18 19 20 21 22 23 24 25 26 27 28 29 30 31 32 33 34 35 36 37 38 39 40 41 42 43 44 45 46 47 48 49 50
000
ASUS43 KMKX 261011
RWRWI

WISCONSIN REGIONAL WEATHER ROUNDUP
NATIONAL WEATHER SERVICE MILWAUKEE/SULLIVAN WI
500 AM CDT MON JUN 26 2017

NOTE: "FAIR" INDICATES FEW OR NO CLOUDS BELOW 12,000 FEET WITH NO
SIGNIFICANT WEATHER AND/OR OBSTRUCTIONS TO VISIBILITY.

WIZ001-002-006>008-014>016-023>028-261100-
NORTHWEST WISCONSIN

CITY           SKY/WX    TMP DP  RH WIND       PRES   REMARKS
SUPERIOR ARPT  NOT AVBL
ASHLAND        LGT RAIN  47  45  93 W7        30.09R
HAYWARD        CLOUDY    46  42  86 CALM      30.11R
SIREN          CLEAR     38  37  97 CALM      30.14S
CUMBERLAND     CLEAR     43  41  93 NW5       30.13R
RICE LAKE      CLEAR     45  43  93 CALM      30.14R
CHETEK         CLEAR     46  44  95 NW3       30.13R
LADYSMITH      CLEAR     45  43  91 NW7       30.12R
EAU CLAIRE     CLEAR     44  43  96 W5        30.12R
MENOMONIE      CLEAR     47  44  90 W5        30.13S
NEW RICHMOND   CLEAR     45  44  95 CALM      30.15R
OSCEOLA        PTCLDY    43  43 100 CALM      30.18S
$$

WIZ003>005-009-010-017-018-261100-
NORTH CENTRAL WISCONSIN

CITY           SKY/WX    TMP DP  RH WIND       PRES   REMARKS
MANITOWISH WTR DRIZZLE   45  45 100 NW9       30.03R
ARBOR VITAE    CLOUDY    46  44  93 NW9       30.02S
WOODRUFF       CLOUDY    46  44  93 NW9       30.02S
RHINELANDER    CLOUDY    47  46  97 W7        30.02S
EAGLE RIVER    CLOUDY    46  45  97 NW6       30.01R
LAND O LAKES   CLOUDY    46  44  93 NW3       30.01S
PHILLIPS       MOCLDY    44  43  97 W5        30.07R
TOMAHAWK       NOT AVBL
MEDFORD        MOCLDY    44  42  95 W8        30.07R
MERRILL        CLOUDY    46  46  97 W7        30.06R
$$

WIZ029-030-035-036-043>047-261100-
CENTRAL WISCONSIN

CITY           SKY/WX    TMP DP  RH WIND       PRES   REMARKS
WAUSAU         MOCLDY    47  45  93 NW9       30.05R
MOSINEE        CLEAR     45  45 100 W8        30.07S
MARSHFIELD     CLEAR     46  43  89 W8        30.08R
STEVENS POINT  CLEAR     46  46  98 W7        30.07R
WAUPACA        CLEAR     50  48  93 W7        30.06R
WAUTOMA        CLEAR     48  46  93 W7        30.08R
WISC RAPIDS    CLEAR     46  44  93 NW7       30.10R
CAMP DOUGLAS   CLEAR     44  43  96 W7        30.10R
$$

WIZ011>013-019>022-031-037>040-048>050-261100-
NORTHEAST WISCONSIN

CITY           SKY/WX    TMP DP  RH WIND       PRES   REMARKS
ANTIGO         CLOUDY    45  44  98 W10       30.03R
SHAWANO        CLEAR     50  47  89 W6        30.03R
OCONTO         CLEAR     47  45  93 W8        30.00S
STURGEON BAY     N/A     52  47  83 W10G16      N/A
GREEN BAY      CLEAR     50  50 100 W9        30.02S
MANITOWOC      CLEAR     52  48  86 W8        30.03R
APPLETON       CLEAR     46  46 100 W7        30.04R
CLINTONVILLE   CLEAR     46  45  93 W7        30.04R
OSHKOSH        CLEAR     50  46  86 W7        30.05R
$$

WIZ032>034-041-042-053>061-261100-
SOUTHWEST WISCONSIN

CITY           SKY/WX    TMP DP  RH WIND       PRES   REMARKS
LA CROSSE      PTCLDY    52  47  83 CALM      30.12R
SPARTA         PTCLDY    41  41  99 CALM      30.12S
VIROQUA        PTCLDY    48  45  90 W3        30.12R
BOSCOBEL       CLEAR     49  47  93 SW3       30.12S
PRAIRIE DU CHI PTCLDY    52  44  75 W6        30.13R
PLATTEVILLE    CLOUDY    50  47  90 W5        30.13R
$$

WIZ056-057-062-063-064-067-068-261100-
SOUTH CENTRAL WISCONSIN

CITY           SKY/WX    TMP DP  RH WIND       PRES   REMARKS
REEDSBURG      MOCLDY    47  47 100 N3        30.10S
BARABOO/DELLS  PTCLDY    48  46  91 W3        30.10R
LONE ROCK      CLEAR     46  44  93 CALM      30.11S
MINERAL POINT  PTCLDY    50  46  87 W5        30.12R
MADISON        MOCLDY    51  48  89 VRB5      30.09R
MIDDLETON      PTCLDY    49  48  99 W6        30.10S
WATERTOWN      NOT AVBL
MONROE         MOCLDY    50  45  81 W10       30.11R
JANESVILLE     CLEAR     50  50 100 CALM      30.10R
$$

WIZ051-052-058>065-066-070>072-261100-
SOUTHEAST WISCONSIN

CITY           SKY/WX    TMP DP  RH WIND       PRES   REMARKS
MILWAUKEE      PTCLDY    55  48  77 W6        30.07R
WAUKESHA       CLEAR     48  45  87 W7        30.09R
MILWAUKEE/TIMM CLEAR     52  45  76 W6        30.08R
RACINE         CLEAR     52  48  86 W5        30.09S
KENOSHA        CLEAR     51  48  89 W5        30.09R
FOND DU LAC    CLEAR     50  45  83 W6        30.06R
SHEBOYGAN      CLEAR     51  49  92 W8        30.04R
WEST BEND      CLEAR     50  46  87 W6        30.07R
JUNEAU         CLEAR     49  46  88 W3        30.09R
$$

LSZ147-162-261100-
LAKE SUPERIOR

STATION/POSITION TIME  TEMP    WIND        PRES    WAVE
                       AIR SEA DIR/SP/G            HT/PER
                 (UTC) (F)     (DEG/KT/KT) (MB)    (FT/S)
W MID LAKE BUOY  0950   44 39  330/ 14/ 16 1017.0R   2/ 3
DEVILS ISLAND    1000   48     310/ 15/ 18 1018.8R
SAXON HARBOR     0930   50     330/ 17/ 21 1017.6S
$$

LMZ867-665-643>646-261100-
LAKE MICHIGAN

STATION/POSITION TIME  TEMP    WIND        PRES    WAVE
                       AIR SEA DIR/SP/G            HT/PER
                 (UTC) (F)     (DEG/KT/KT) (MB)    (FT/S)
CHAMBERS ISLAND  0940   52     240/  6/ 12 1014.6S
S GREEN BAY BUOY 1000   54     270/ 16/ 19 1015.5
N MID LAKE BUOY  0950   55 58  340/ 10/ 10 1014.4S   1/ 2
NORTHPORT PIER   0940   55     300/  8/ 11 1014.6R
KEWAUNEE LAKESHO 0948   51     270/  7/ 10 1015.6R
SHEBOYGAN LAKESH 1000   54     260/  9     1017.1R
PORT WASHINGTON  0930   54     270/  6/ 10 1018.3R
ATWATER BUOY     0939   56 56  260/ 10/ 12 1018.0R
MILWAUKEE LAKESH 0950   56     270/  5/  7   N/A
S MID LAKE BUOY  0950   60 61  300/ 16/ 17 1017.8R   3/ 4
KENOSHA   LAKESH 1000   57     260/  7/  9 1018.6
$$

TC  - TEMPERATURE IN CELSIUS
VSB - VISIBILITY IN STATUTE MILES
WCI - WIND CHILL INDEX
HX  - HEAT INDEX




USA.gov is the U.S. government's official web portal to all federal, state and local government web resources and services.